Weather History for Aqaba, Jordan

Change the Weather History Date:

Friday, January 3, 2014

  Actual Average (LLET) Record (LLET)
Temperature  
Mean Temperature 58 °F -  
Max Temperature 68 °F 69 °F 77 °F (2000)
Min Temperature 48 °F 52 °F 42 °F (2009)
Degree Days  
Heating Degree Days 7    
Growing Degree Days 8 (Base 50)    
Moisture  
Dew Point 43 °F    
Average Humidity 57    
Maximum Humidity 89    
Minimum Humidity 30    
Precipitation  
Precipitation 0.00 in - - ()
Sea Level Pressure  
Sea Level Pressure 30.06 in    
Wind  
Wind Speed 6 mph ()    
Max Wind Speed 18 mph    
Max Gust Speed -    
Visibility 4.7 miles    
Events      
Averages and records for this station are not official NWS values.
T = Trace of Precipitation, MM = Missing Value Source: Averaged Metar Reports

Daily Weather History Graph

Daily Weather History Graph

Search for Another Location

Airport:

Trip Planner

Search our weather history database for the weather conditions in past years. The results will help you decide how hot, cold, wet, or windy it might be!

Date:

Astronomy

Jan. 03, 2014 Rise Set
Actual Time 6:35 AM EET 4:53 PM EET
Civil Twilight 6:09 AM EET 5:19 PM EET
Nautical Twilight 5:39 AM EET 5:49 PM EET
Astronomical Twilight 5:10 AM EET 6:18 PM EET
Moon 7:57 AM EET (1/3) 7:24 PM EET (1/3)
Length of Visible Light 11h 10m
Length of Day
10h 18m
Waxing Crescent, 6% of the Moon is Illuminated
Jan 3
Waxing Crescent
Jan 8
First Quarter
Jan 16
Full
Jan 24
Last Quarter
Jan 30
New

Hourly Weather History & Observations

Time (EET) Temp. Dew Point Humidity Pressure Visibility Wind Dir Wind Speed Gust Speed Precip Events Conditions
5:00 AM 50 °F 45 °F 75% 30.12 in 6 mi North 5.8 mph - -  
7:00 AM 48.2 °F 44.6 °F 87% 30.09 in 3.7 mi North 5.8 mph - N/A   Haze
8:00 AM 48 °F 46 °F 89% 30.09 in 6 mi North 6.9 mph - -  
8:00 AM 48.2 °F 44.6 °F 87% 30.09 in 3.7 mi North 6.9 mph - N/A   Haze
9:00 AM 51.8 °F 44.6 °F 76% 30.09 in 3.7 mi North 6.9 mph - N/A   Haze
10:00 AM 55.4 °F 44.6 °F 67% 30.09 in 3.7 mi North 6.9 mph - N/A   Haze
11:00 AM 61 °F 45 °F 44% 30.12 in 4 mi North 15.7 mph - -   Haze
11:00 AM 60.8 °F 44.6 °F 55% 30.09 in 3.7 mi North 8.1 mph - N/A   Haze
12:00 PM 62.6 °F 44.6 °F 52% 30.09 in 3.7 mi North 8.1 mph - N/A   Haze
1:00 PM 62.6 °F 44.6 °F 52% 30.09 in 3.7 mi North 8.1 mph - N/A   Haze
2:00 PM 68.0 °F 42.8 °F 40% 30.01 in 5.0 mi North 5.8 mph - N/A   Haze
3:00 PM 68.0 °F 42.8 °F 40% 30.01 in 5.0 mi North 5.8 mph - N/A   Haze
4:00 PM 68.0 °F 42.8 °F 40% 30.01 in 5.0 mi North 5.8 mph - N/A   Haze
5:00 PM 66 °F 42 °F 30% 30.03 in 5 mi North 17.9 mph - -   Haze
5:00 PM 66.2 °F 42.8 °F 43% 30.01 in 5.0 mi North 5.8 mph - N/A   Haze
7:00 PM 60.8 °F 42.8 °F 52% 30.01 in 5.0 mi North 5.8 mph - N/A   Haze
8:00 PM 58 °F 40 °F 41% 30.04 in 6 mi North 8.1 mph - -  
8:00 PM 59.0 °F 41.0 °F 51% 30.04 in - North 8.1 mph - N/A   Clear
9:00 PM 59.0 °F 41.0 °F 51% 30.04 in - North 8.1 mph - N/A   Clear
10:00 PM 57.2 °F 41.0 °F 55% 30.04 in - North 8.1 mph - N/A   Clear
11:00 PM 54 °F 45 °F 62% 30.06 in 6 mi Calm Calm - -  
11:00 PM 53.6 °F 44.6 °F 72% 30.04 in - Calm Calm - N/A   Clear